Dades meteomassalio
Diari Summary for Juny 27, 2017 Units:  Metric    English   Both
« Previous Day
Next Day »
Diari Semanal Mensual Anual Personalitzat
  Maxima: Minima: Mijana:
Temperatura: 33.9 °C 16.9 °C 25.9 °C
Rosada: 19.9 °C 5.6 °C 15.9 °C
Humitat: 89 % 19 % 58 %
Velocitat del vent: 46.3 km/h 0.0 km/h 10.7 km/h
Racha vent: 46.3 km/h - -
Vent:- - SSW
Pressio: 1010.0 hPa 1002.3 hPa -
Pluja: 0.0 mm    
Historical Graphs
 
 
Tabular Data for Juny 27, 2017
Time Temperature Dew Point Pressure Wind Wind Speed Wind Gust Humidity Rainfall Rate (Hourly) solar Conditions
00:00 23.1 °C 17.5 °C 1009.7 hPa Calm     71 % 0.0 mm 0.0 W/m2 RA
00:05 22.8 °C 17.3 °C 1009.7 hPa Calm     71 % 0.0 mm 0.0 W/m2 CLR
00:10 22.7 °C 17.2 °C 1010.0 hPa Calm     71 % 0.0 mm 0.0 W/m2 CLR
00:15 22.7 °C 17.3 °C 1010.0 hPa Calm     72 % 0.0 mm 0.0 W/m2 CLR
00:20 22.6 °C 17.3 °C 1010.0 hPa Calm     72 % 0.0 mm 0.0 W/m2 CLR
00:25 22.4 °C 17.4 °C 1010.0 hPa Calm     73 % 0.0 mm 0.0 W/m2 CLR
00:30 22.3 °C 17.3 °C 1010.0 hPa Calm     73 % 0.0 mm 0.0 W/m2 CLR
00:35 22.2 °C 17.4 °C 1010.0 hPa Calm     74 % 0.0 mm 0.0 W/m2 CLR
00:40 22.1 °C 17.4 °C 1010.0 hPa Calm     75 % 0.0 mm 0.0 W/m2 CLR
00:45 22.0 °C 17.4 °C 1010.0 hPa Calm     75 % 0.0 mm 0.0 W/m2 CLR
00:50 21.9 °C 17.3 °C 1010.0 hPa Calm     75 % 0.0 mm 0.0 W/m2 CLR
00:55 21.7 °C 17.1 °C 1010.0 hPa Calm     75 % 0.0 mm 0.0 W/m2 CLR
01:00 21.7 °C 17.3 °C 1009.7 hPa Calm     76 % 0.0 mm 0.0 W/m2 CLR
01:05 21.6 °C 17.2 °C 1009.7 hPa Calm     76 % 0.0 mm 0.0 W/m2 CLR
01:10 21.6 °C 17.2 °C 1009.7 hPa Calm     76 % 0.0 mm 0.0 W/m2 CLR
01:15 21.4 °C 17.2 °C 1009.7 hPa Calm     77 % 0.0 mm 0.0 W/m2 CLR
01:20 21.3 °C 17.1 °C 1009.7 hPa Calm     77 % 0.0 mm 0.0 W/m2 CLR
01:25 21.3 °C 17.3 °C 1009.7 hPa Calm     78 % 0.0 mm 0.0 W/m2 CLR
01:30 21.1 °C 17.1 °C 1009.7 hPa Calm     78 % 0.0 mm 0.0 W/m2 CLR
01:35 21.1 °C 17.1 °C 1009.7 hPa Calm     78 % 0.0 mm 0.0 W/m2 CLR
01:40 21.1 °C 17.1 °C 1009.7 hPa Calm     78 % 0.0 mm 0.0 W/m2 CLR
01:45 20.9 °C 17.2 °C 1009.7 hPa Calm     79 % 0.0 mm 0.0 W/m2 CLR
01:50 21.0 °C 17.0 °C 1009.7 hPa Calm     78 % 0.0 mm 0.0 W/m2 CLR
01:55 21.0 °C 17.2 °C 1009.7 hPa Calm     79 % 0.0 mm 0.0 W/m2 CLR
02:00 20.9 °C 17.1 °C 1009.7 hPa Calm     79 % 0.0 mm 0.0 W/m2 CLR
02:05 20.8 °C 17.1 °C 1009.7 hPa Calm     79 % 0.0 mm 0.0 W/m2 CLR
02:10 20.7 °C 16.9 °C 1009.4 hPa Calm     79 % 0.0 mm 0.0 W/m2 CLR
02:15 20.6 °C 17.0 °C 1009.4 hPa Calm     80 % 0.0 mm 0.0 W/m2 CLR
02:20 20.4 °C 17.0 °C 1009.4 hPa Calm     81 % 0.0 mm 0.0 W/m2 CLR
02:25 20.2 °C 16.8 °C 1009.4 hPa Calm     81 % 0.0 mm 0.0 W/m2 CLR
02:30 20.1 °C 16.7 °C 1009.4 hPa Calm     81 % 0.0 mm 0.0 W/m2 CLR
02:35 20.0 °C 16.8 °C 1009.4 hPa Calm     82 % 0.0 mm 0.0 W/m2 CLR
02:36 20.0 °C 16.8 °C 1009.4 hPa Calm     82 % 0.0 mm 0.0 W/m2 CLR
02:41 20.0 °C 16.8 °C 1009.4 hPa Calm     82 % 0.0 mm 0.0 W/m2 CLR
02:46 19.9 °C 16.8 °C 1009.4 hPa Calm     82 % 0.0 mm 0.0 W/m2 CLR
02:51 19.9 °C 16.8 °C 1009.0 hPa Calm     82 % 0.0 mm 0.0 W/m2 CLR
02:56 19.8 °C 16.7 °C 1009.0 hPa Calm     82 % 0.0 mm 0.0 W/m2 CLR
03:01 19.8 °C 16.8 °C 1009.0 hPa Calm     83 % 0.0 mm 0.0 W/m2 CLR
03:06 19.7 °C 16.8 °C 1009.0 hPa Calm     83 % 0.0 mm 0.0 W/m2 CLR
03:11 19.6 °C 16.7 °C 1009.0 hPa Calm     83 % 0.0 mm 0.0 W/m2 CLR
03:16 19.5 °C 16.7 °C 1009.0 hPa Calm     84 % 0.0 mm 0.0 W/m2 CLR
03:21 19.4 °C 16.6 °C 1009.0 hPa Calm     84 % 0.0 mm 0.0 W/m2 CLR
03:22 19.4 °C 16.6 °C 1009.0 hPa Calm     84 % 0.0 mm 0.0 W/m2 CLR
03:27 19.3 °C 16.5 °C 1008.7 hPa Calm     84 % 0.0 mm 0.0 W/m2 CLR
03:32 19.1 °C 16.6 °C 1008.7 hPa Calm     85 % 0.0 mm 0.0 W/m2 CLR
03:37 19.1 °C 16.5 °C 1008.7 hPa Calm     85 % 0.0 mm 0.0 W/m2 CLR
03:42 19.1 °C 16.5 °C 1008.7 hPa Calm     85 % 0.0 mm 0.0 W/m2 CLR
03:47 18.9 °C 16.4 °C 1008.7 hPa Calm     85 % 0.0 mm 0.0 W/m2 CLR
03:52 18.9 °C 16.3 °C 1008.7 hPa Calm     85 % 0.0 mm 0.0 W/m2 CLR
03:57 18.7 °C 16.2 °C 1008.7 hPa Calm     85 % 0.0 mm 0.0 W/m2 CLR
04:02 18.7 °C 16.3 °C 1008.7 hPa Calm     86 % 0.0 mm 0.0 W/m2 CLR
04:07 18.6 °C 16.2 °C 1008.7 hPa Calm     86 % 0.0 mm 0.0 W/m2 CLR
04:12 18.6 °C 16.2 °C 1008.7 hPa Calm     86 % 0.0 mm 0.0 W/m2 CLR
04:17 18.6 °C 16.2 °C 1008.7 hPa Calm     86 % 0.0 mm 0.0 W/m2 CLR
04:22 18.6 °C 16.2 °C 1008.7 hPa Calm     86 % 0.0 mm 0.0 W/m2 CLR
04:27 18.6 °C 16.0 °C 1008.7 hPa Calm     85 % 0.0 mm 0.0 W/m2 CLR
04:32 18.5 °C 15.9 °C 1008.7 hPa Calm     85 % 0.0 mm 0.0 W/m2 CLR
04:37 18.5 °C 16.1 °C 1008.4 hPa Calm     86 % 0.0 mm 0.0 W/m2 CLR
04:42 18.5 °C 16.1 °C 1008.4 hPa Calm     86 % 0.0 mm 0.0 W/m2 CLR
04:47 18.5 °C 16.1 °C 1008.4 hPa Calm     86 % 0.0 mm 0.0 W/m2 CLR
04:52 18.4 °C 16.1 °C 1008.4 hPa Calm     86 % 0.0 mm 0.0 W/m2 CLR
04:57 18.4 °C 16.0 °C 1008.4 hPa Calm     86 % 0.0 mm 0.0 W/m2 CLR
05:02 18.3 °C 15.9 °C 1008.0 hPa Calm     86 % 0.0 mm 0.0 W/m2 CLR
05:07 18.3 °C 15.9 °C 1008.0 hPa Calm     86 % 0.0 mm 0.0 W/m2 CLR
05:12 18.1 °C 15.7 °C 1008.0 hPa Calm     86 % 0.0 mm 0.0 W/m2 CLR
05:17 18.0 °C 15.6 °C 1008.0 hPa Calm     86 % 0.0 mm 0.0 W/m2 CLR
05:22 17.9 °C 15.7 °C 1008.0 hPa Calm     87 % 0.0 mm 0.0 W/m2 CLR
05:27 17.8 °C 15.7 °C 1008.0 hPa Calm     87 % 0.0 mm 0.0 W/m2 CLR
05:32 17.8 °C 15.6 °C 1008.0 hPa Calm     87 % 0.0 mm 0.0 W/m2 CLR
05:37 17.7 °C 15.6 °C 1008.0 hPa Calm     87 % 0.0 mm 0.0 W/m2 CLR
05:42 17.7 °C 15.5 °C 1008.0 hPa Calm     87 % 0.0 mm 0.0 W/m2 CLR
05:48 17.6 °C 15.4 °C 1008.0 hPa Calm     87 % 0.0 mm 0.0 W/m2 CLR
05:53 17.5 °C 15.5 °C 1007.7 hPa Calm     88 % 0.0 mm 0.0 W/m2 CLR
05:58 17.4 °C 15.4 °C 1008.0 hPa Calm     88 % 0.0 mm 0.0 W/m2 CLR
06:03 17.3 °C 15.3 °C 1007.7 hPa Calm     88 % 0.0 mm 0.0 W/m2 CLR
06:08 17.2 °C 15.2 °C 1008.0 hPa Calm     88 % 0.0 mm 0.0 W/m2 CLR
06:13 17.1 °C 15.1 °C 1008.0 hPa Calm     88 % 0.0 mm 0.0 W/m2 CLR
06:18 17.1 °C 15.1 °C 1008.0 hPa Calm     88 % 0.0 mm 0.0 W/m2 CLR
06:23 17.1 °C 15.2 °C 1008.0 hPa Calm     89 % 0.0 mm 0.0 W/m2 OVC
06:28 17.0 °C 15.2 °C 1008.0 hPa Calm     89 % 0.0 mm 5.0 W/m2 OVC
06:33 16.9 °C 15.1 °C 1008.0 hPa Calm     89 % 0.0 mm 7.0 W/m2 BKN
06:38 16.9 °C 15.1 °C 1008.0 hPa Calm     89 % 0.0 mm 9.0 W/m2 BKN
06:43 16.9 °C 15.1 °C 1007.7 hPa Calm     89 % 0.0 mm 12.0 W/m2 BKN
06:48 16.9 °C 15.1 °C 1008.0 hPa Calm     89 % 0.0 mm 14.0 W/m2 BKN
06:53 16.9 °C 15.1 °C 1008.0 hPa Calm     89 % 0.0 mm 19.0 W/m2 BKN
06:58 16.9 °C 15.1 °C 1008.0 hPa Calm     89 % 0.0 mm 23.0 W/m2 BKN
07:03 17.0 °C 15.2 °C 1008.0 hPa Calm     89 % 0.0 mm 28.0 W/m2 BKN
07:08 17.0 °C 15.2 °C 1008.0 hPa Calm     89 % 0.0 mm 37.0 W/m2 BKN
07:13 17.1 °C 15.2 °C 1008.0 hPa Calm     89 % 0.0 mm 49.0 W/m2 SCT
07:18 17.2 °C 15.3 °C 1008.0 hPa Calm     89 % 0.0 mm 56.0 W/m2 SCT
07:23 17.3 °C 15.3 °C 1008.0 hPa Calm     88 % 0.0 mm 77.0 W/m2 FEW
07:28 17.4 °C 15.4 °C 1007.7 hPa Calm     88 % 0.0 mm 93.0 W/m2 CLR
07:33 17.6 °C 15.4 °C 1007.7 hPa Calm     87 % 0.0 mm 102.0 W/m2 CLR
07:38 17.8 °C 15.6 °C 1008.0 hPa Calm     87 % 0.0 mm 120.0 W/m2 CLR
07:43 18.2 °C 15.8 °C 1007.7 hPa Calm     86 % 0.0 mm 134.0 W/m2 CLR
07:48 18.4 °C 15.7 °C 1007.7 hPa Calm     84 % 0.0 mm 146.0 W/m2 CLR
07:53 18.7 °C 15.8 °C 1007.7 hPa Calm     83 % 0.0 mm 163.0 W/m2 CLR
07:58 19.1 °C 16.2 °C 1007.7 hPa Calm     83 % 0.0 mm 185.0 W/m2 CLR
08:03 19.5 °C 16.2 °C 1007.7 hPa Calm     81 % 0.0 mm 151.0 W/m2 CLR
08:08 19.8 °C 16.1 °C 1007.7 hPa Calm     79 % 0.0 mm 204.0 W/m2 CLR
08:13 20.2 °C 16.1 °C 1007.7 hPa Calm     77 % 0.0 mm 213.0 W/m2 CLR
08:18 20.6 °C 16.2 °C 1007.7 hPa Calm     76 % 0.0 mm 163.0 W/m2 CLR
08:23 21.0 °C 16.2 °C 1007.7 hPa Calm     74 % 0.0 mm 213.0 W/m2 CLR
08:28 21.3 °C 16.5 °C 1007.7 hPa Calm     74 % 0.0 mm 246.0 W/m2 CLR
08:33 21.6 °C 16.6 °C 1007.7 hPa Calm     73 % 0.0 mm 276.0 W/m2 CLR
08:38 21.9 °C 16.7 °C 1007.7 hPa Calm     72 % 0.0 mm 253.0 W/m2 CLR
08:43 22.4 °C 16.9 °C 1007.7 hPa Calm     71 % 0.0 mm 218.0 W/m2 CLR
08:48 22.8 °C 16.8 °C 1007.7 hPa Calm     69 % 0.0 mm 330.0 W/m2 CLR
08:53 23.4 °C 16.9 °C 1007.3 hPa Calm     67 % 0.0 mm 230.0 W/m2 CLR
08:54 23.5 °C 17.0 °C 1007.3 hPa Calm     67 % 0.0 mm 348.0 W/m2 CLR
08:58 23.8 °C 16.8 °C 1007.3 hPa Calm     65 % 0.0 mm 367.0 W/m2 CLR
09:03 24.2 °C 17.0 °C 1007.3 hPa Calm     64 % 0.0 mm 392.0 W/m2 CLR
09:08 24.6 °C 17.3 °C 1007.3 hPa Calm     64 % 0.0 mm 406.0 W/m2 CLR
09:13 25.1 °C 17.3 °C 1007.3 hPa Calm     62 % 0.0 mm 397.0 W/m2 CLR
09:18 25.3 °C 17.5 °C 1007.0 hPa Calm     62 % 0.0 mm 429.0 W/m2 CLR
09:23 25.7 °C 17.6 °C 1007.0 hPa Calm     61 % 0.0 mm 454.0 W/m2 CLR
09:28 25.9 °C 17.8 °C 1007.0 hPa Calm     61 % 0.0 mm 466.0 W/m2 CLR
09:33 26.2 °C 17.8 °C 1007.0 hPa Calm     60 % 0.0 mm 469.0 W/m2 CLR
09:38 26.4 °C 18.3 °C 1007.0 hPa Calm     61 % 0.0 mm 489.0 W/m2 CLR
09:43 26.5 °C 18.1 °C 1006.7 hPa Calm     60 % 0.0 mm 487.0 W/m2 CLR
09:48 26.7 °C 18.1 °C 1006.7 hPa Calm     59 % 0.0 mm 501.0 W/m2 CLR
09:53 27.0 °C 18.3 °C 1006.7 hPa Calm     59 % 0.0 mm 512.0 W/m2 CLR
09:58 27.3 °C 18.3 °C 1006.7 hPa Calm     58 % 0.0 mm 552.0 W/m2 CLR
10:03 27.4 °C 18.4 °C 1006.7 hPa Calm     58 % 0.0 mm 512.0 W/m2 CLR
10:08 27.7 °C 18.4 °C 1006.3 hPa Calm   0.2 km/h 57 % 0.0 mm 552.0 W/m2 CLR
10:13 28.2 °C 18.6 °C 1006.3 hPa East 7.4 km/h 7.4 km/h 56 % 0.0 mm 548.0 W/m2 CLR
10:18 28.4 °C 18.5 °C 1006.3 hPa ENE 7.4 km/h 7.4 km/h 55 % 0.0 mm 599.0 W/m2 CLR
10:23 28.7 °C 18.7 °C 1006.3 hPa ENE 7.4 km/h 7.4 km/h 55 % 0.0 mm 577.0 W/m2 CLR
10:28 28.9 °C 19.6 °C 1006.3 hPa ENE 8.0 km/h 8.0 km/h 57 % 0.0 mm 603.0 W/m2 CLR
10:33 29.1 °C 19.4 °C 1006.0 hPa East 7.4 km/h 7.4 km/h 56 % 0.0 mm 647.0 W/m2 CLR
10:38 29.2 °C 18.9 °C 1006.0 hPa ENE 8.0 km/h 8.0 km/h 54 % 0.0 mm 684.0 W/m2 CLR
10:43 29.4 °C 19.1 °C 1006.0 hPa ENE 5.6 km/h 5.6 km/h 54 % 0.0 mm 661.0 W/m2 CLR
10:47 29.6 °C 18.7 °C 1006.0 hPa ENE 5.6 km/h 5.6 km/h 52 % 0.0 mm 631.0 W/m2 CLR
11:19 29.6 °C 18.7 °C 1006.0 hPa ENE 5.6 km/h 5.6 km/h 52 % 0.0 mm 631.0 W/m2 CLR
11:24 31.2 °C 19.2 °C 1005.3 hPa ENE 5.6 km/h 5.6 km/h 49 % 0.0 mm 780.0 W/m2 CLR
11:29 31.2 °C 19.2 °C 1005.3 hPa ENE 5.6 km/h 5.6 km/h 49 % 0.0 mm 780.0 W/m2 CLR
11:34 31.8 °C 18.4 °C 1005.3 hPa WNW 11.1 km/h 11.1 km/h 45 % 0.0 mm 545.0 W/m2 CLR
11:39 31.8 °C 19.1 °C 1005.3 hPa ENE 7.4 km/h 7.4 km/h 47 % 0.0 mm 826.0 W/m2 CLR
11:44 31.8 °C 14.5 °C 1005.3 hPa SE 20.4 km/h 20.4 km/h 35 % 0.0 mm 735.0 W/m2 CLR
11:49 32.2 °C 18.0 °C 1005.0 hPa NNW 20.4 km/h 20.4 km/h 43 % 0.0 mm 589.0 W/m2 CLR
11:54 31.5 °C 18.8 °C 1005.3 hPa NNW 25.9 km/h 25.9 km/h 47 % 0.0 mm 708.0 W/m2 CLR
11:59 31.1 °C 18.4 °C 1005.3 hPa North 18.5 km/h 18.5 km/h 47 % 0.0 mm 271.0 W/m2 CLR
12:04 31.2 °C 17.4 °C 1005.0 hPa NNE 9.3 km/h 9.3 km/h 44 % 0.0 mm 670.0 W/m2 CLR
12:09 31.8 °C 15.3 °C 1005.0 hPa NNE 11.1 km/h 11.1 km/h 37 % 0.0 mm 740.0 W/m2 CLR
12:14 32.6 °C 17.6 °C 1005.0 hPa WNW 13.0 km/h 13.0 km/h 41 % 0.0 mm 958.0 W/m2 CLR
12:19 32.9 °C 16.7 °C 1005.0 hPa NW 16.7 km/h 16.7 km/h 38 % 0.0 mm 884.0 W/m2 CLR
12:24 32.9 °C 16.3 °C 1005.0 hPa North 11.1 km/h 11.1 km/h 37 % 0.0 mm 779.0 W/m2 CLR
12:29 32.9 °C 16.3 °C 1005.0 hPa WNW 14.8 km/h 14.8 km/h 37 % 0.0 mm 364.0 W/m2 CLR
12:34 32.9 °C 16.7 °C 1005.0 hPa NNW 24.1 km/h 24.1 km/h 38 % 0.0 mm 288.0 W/m2 CLR
12:39 32.8 °C 15.7 °C 1005.0 hPa NW 14.5 km/h 14.5 km/h 36 % 0.0 mm 253.0 W/m2 CLR
12:44 32.6 °C 16.0 °C 1005.0 hPa North 20.4 km/h 20.4 km/h 37 % 0.0 mm 380.0 W/m2 CLR
12:49 32.7 °C 16.9 °C 1005.0 hPa North 18.5 km/h 18.5 km/h 39 % 0.0 mm 738.0 W/m2 CLR
12:54 32.9 °C 17.2 °C 1005.0 hPa NW 19.3 km/h 19.3 km/h 39 % 0.0 mm 278.0 W/m2 CLR
12:55 32.9 °C 17.2 °C 1005.0 hPa NNW 17.7 km/h 17.7 km/h 39 % 0.0 mm 278.0 W/m2 CLR
13:00 32.7 °C 16.9 °C 1005.0 hPa North 22.2 km/h 22.2 km/h 39 % 0.0 mm 338.0 W/m2 CLR
13:05 32.8 °C 17.8 °C 1005.0 hPa North 16.7 km/h 16.7 km/h 41 % 0.0 mm 916.0 W/m2 CLR
13:10 33.0 °C 15.9 °C 1005.0 hPa NNE 24.1 km/h 24.1 km/h 36 % 0.0 mm 772.0 W/m2 CLR
13:15 33.2 °C 15.2 °C 1004.6 hPa North 27.8 km/h 27.8 km/h 34 % 0.0 mm 972.0 W/m2 CLR
13:20 33.3 °C 14.9 °C 1004.6 hPa NNE 25.9 km/h 25.9 km/h 33 % 0.0 mm 671.0 W/m2 CLR
13:25 33.5 °C 15.0 °C 1005.0 hPa NE 9.3 km/h 9.3 km/h 33 % 0.0 mm 1007.0 W/m2 CLR
13:30 33.6 °C 13.6 °C 1004.6 hPa North 22.2 km/h 22.2 km/h 30 % 0.0 mm 930.0 W/m2 CLR
13:35 33.3 °C 14.4 °C 1004.6 hPa ENE 18.5 km/h 18.5 km/h 32 % 0.0 mm 990.0 W/m2 CLR
13:40 33.7 °C 14.2 °C 1004.6 hPa NNW 27.8 km/h 27.8 km/h 31 % 0.0 mm 1055.0 W/m2 CLR
13:45 33.8 °C 15.3 °C 1004.6 hPa NNE 18.5 km/h 18.5 km/h 33 % 0.0 mm 1016.0 W/m2 CLR
13:50 33.9 °C 15.8 °C 1004.6 hPa WNW 25.9 km/h 25.9 km/h 34 % 0.0 mm 1018.0 W/m2 CLR
13:55 33.7 °C 14.7 °C 1004.3 hPa NW 27.8 km/h 27.8 km/h 32 % 0.0 mm 993.0 W/m2 CLR
13:57 33.8 °C 17.5 °C 1003.9 hPa NNE 31.5 km/h 31.5 km/h 38 % 0.0 mm 981.0 W/m2 CLR
14:02 33.6 °C 17.3 °C 1004.3 hPa ESE 25.9 km/h 25.9 km/h 38 % 0.0 mm 874.0 W/m2 CLR
14:07 33.3 °C 17.9 °C 1004.3 hPa ESE 9.3 km/h 9.3 km/h 40 % 0.0 mm 958.0 W/m2 CLR
14:12 33.2 °C 17.4 °C 1003.9 hPa ENE 14.8 km/h 14.8 km/h 39 % 0.0 mm 840.0 W/m2 CLR
14:17 33.2 °C 17.0 °C 1003.9 hPa SSE 9.3 km/h 9.3 km/h 38 % 0.0 mm 840.0 W/m2 CLR
14:22 33.1 °C 17.3 °C 1003.9 hPa SE 8.0 km/h 8.0 km/h 39 % 0.0 mm 1013.0 W/m2 CLR
14:27 32.7 °C 18.1 °C 1003.6 hPa ESE 13.0 km/h 13.0 km/h 42 % 0.0 mm 1016.0 W/m2 CLR
14:32 32.7 °C 16.9 °C 1003.6 hPa ESE 22.2 km/h 22.2 km/h 39 % 0.0 mm 896.0 W/m2 CLR
14:37 32.9 °C 16.7 °C 1003.6 hPa ESE 11.1 km/h 11.1 km/h 38 % 0.0 mm 759.0 W/m2 CLR
14:42 32.8 °C 17.4 °C 1003.3 hPa East 18.5 km/h 18.5 km/h 40 % 0.0 mm 895.0 W/m2 CLR
14:48 32.5 °C 17.2 °C 1003.3 hPa ESE 20.4 km/h 20.4 km/h 40 % 0.0 mm 489.0 W/m2 CLR
14:58 32.2 °C 17.6 °C 1003.3 hPa ESE 27.8 km/h 27.8 km/h 42 % 0.0 mm 438.0 W/m2 CLR
15:03 31.9 °C 18.5 °C 1003.3 hPa East 14.5 km/h 14.5 km/h 45 % 0.0 mm 550.0 W/m2 CLR
15:08 31.6 °C 18.6 °C 1003.6 hPa East 16.7 km/h 16.7 km/h 46 % 0.0 mm 984.0 W/m2 CLR
15:13 31.9 °C 17.8 °C 1003.6 hPa SE 18.5 km/h 18.5 km/h 43 % 0.0 mm 877.0 W/m2 CLR
15:18 32.0 °C 17.8 °C 1003.6 hPa SE 11.1 km/h 11.1 km/h 43 % 0.0 mm 666.0 W/m2 CLR
15:23 32.3 °C 18.4 °C 1003.3 hPa SE 5.6 km/h 5.6 km/h 44 % 0.0 mm 991.0 W/m2 CLR
15:28 32.4 °C 17.5 °C 1003.3 hPa Calm     41 % 0.0 mm 944.0 W/m2 CLR
15:33 32.7 °C 18.1 °C 1003.6 hPa NE 5.6 km/h 5.6 km/h 42 % 0.0 mm 986.0 W/m2 CLR
15:38 32.6 °C 19.5 °C 1003.3 hPa East 20.4 km/h 20.4 km/h 46 % 0.0 mm 981.0 W/m2 CLR
15:43 31.7 °C 19.0 °C 1003.3 hPa SE 31.5 km/h 31.5 km/h 47 % 0.0 mm 926.0 W/m2 CLR
15:48 31.4 °C 19.1 °C 1002.9 hPa ESE 24.1 km/h 24.1 km/h 48 % 0.0 mm 944.0 W/m2 CLR
15:53 31.5 °C 19.2 °C 1002.9 hPa ESE 25.9 km/h 25.9 km/h 48 % 0.0 mm 956.0 W/m2 CLR
15:58 31.1 °C 19.1 °C 1002.9 hPa East 24.1 km/h 24.1 km/h 49 % 0.0 mm 1044.0 W/m2 CLR
16:03 30.6 °C 19.3 °C 1003.3 hPa East 35.2 km/h 35.2 km/h 51 % 0.0 mm 169.0 W/m2 CLR
16:08 29.8 °C 19.4 °C 1003.3 hPa ESE 25.9 km/h 25.9 km/h 54 % 0.0 mm 216.0 W/m2 CLR
16:13 29.6 °C 19.6 °C 1003.3 hPa ESE 18.5 km/h 18.5 km/h 55 % 0.0 mm 297.0 W/m2 CLR
16:18 29.2 °C 19.2 °C 1003.3 hPa ENE 22.2 km/h 22.2 km/h 55 % 0.0 mm 239.0 W/m2 CLR
16:23 29.1 °C 19.4 °C 1003.3 hPa ESE 14.8 km/h 14.8 km/h 56 % 0.0 mm 888.0 W/m2 CLR
16:28 29.2 °C 19.6 °C 1003.3 hPa ESE 18.5 km/h 18.5 km/h 56 % 0.0 mm 805.0 W/m2 CLR
16:33 29.4 °C 19.7 °C 1003.3 hPa SE 16.7 km/h 16.7 km/h 56 % 0.0 mm 773.0 W/m2 CLR
16:38 29.6 °C 19.6 °C 1003.3 hPa SE 18.5 km/h 18.5 km/h 55 % 0.0 mm 759.0 W/m2 CLR
16:43 29.9 °C 19.9 °C 1002.9 hPa ESE 20.4 km/h 20.4 km/h 55 % 0.0 mm 761.0 W/m2 CLR
16:48 30.0 °C 19.7 °C 1003.3 hPa East 11.1 km/h 11.1 km/h 54 % 0.0 mm 744.0 W/m2 CLR
16:53 29.9 °C 19.6 °C 1002.9 hPa East 1.9 km/h 1.9 km/h 54 % 0.0 mm 731.0 W/m2 CLR
16:58 30.2 °C 19.6 °C 1002.9 hPa SE 11.3 km/h 11.3 km/h 53 % 0.0 mm 722.0 W/m2 CLR
17:03 30.6 °C 18.3 °C 1002.9 hPa NE 5.6 km/h 5.6 km/h 48 % 0.0 mm 705.0 W/m2 CLR
17:08 31.1 °C 18.4 °C 1002.6 hPa East 5.6 km/h 5.6 km/h 47 % 0.0 mm 700.0 W/m2 CLR
17:13 31.7 °C 17.9 °C 1002.6 hPa NE 12.9 km/h 12.9 km/h 44 % 0.0 mm 682.0 W/m2 CLR
17:18 32.2 °C 17.2 °C 1002.6 hPa NE 5.6 km/h 5.6 km/h 41 % 0.0 mm 671.0 W/m2 CLR
17:23 32.5 °C 17.6 °C 1002.6 hPa ENE 5.6 km/h 5.6 km/h 41 % 0.0 mm 661.0 W/m2 CLR
17:28 32.8 °C 17.4 °C 1002.6 hPa NNE 9.7 km/h 9.7 km/h 40 % 0.0 mm 642.0 W/m2 CLR
17:33 32.8 °C 17.8 °C 1002.6 hPa ENE 7.4 km/h 7.4 km/h 41 % 0.0 mm 640.0 W/m2 CLR
17:38 32.6 °C 18.8 °C 1002.3 hPa ESE 3.7 km/h 3.7 km/h 44 % 0.0 mm 615.0 W/m2 CLR
17:43 32.0 °C 19.3 °C 1002.3 hPa ESE 11.1 km/h 11.1 km/h 47 % 0.0 mm 605.0 W/m2 CLR
17:48 31.9 °C 19.2 °C 1002.6 hPa Calm     47 % 0.0 mm 599.0 W/m2 CLR
17:53 31.8 °C 19.4 °C 1002.6 hPa ENE 5.6 km/h 5.6 km/h 48 % 0.0 mm 592.0 W/m2 CLR
17:58 31.9 °C 19.5 °C 1002.6 hPa Calm     48 % 0.0 mm 582.0 W/m2 CLR
18:00 32.0 °C 19.3 °C 1002.6 hPa NNW 8.0 km/h 8.0 km/h 47 % 0.0 mm 587.0 W/m2 CLR
18:05 31.6 °C 18.9 °C 1002.6 hPa SE 13.0 km/h 13.0 km/h 47 % 0.0 mm 90.0 W/m2 CLR
18:10 30.8 °C 18.9 °C 1002.6 hPa East 13.0 km/h 13.0 km/h 49 % 0.0 mm 127.0 W/m2 CLR
18:11 30.7 °C 18.8 °C 1002.6 hPa East 11.1 km/h 11.1 km/h 49 % 0.0 mm 137.0 W/m2 CLR
18:16 30.2 °C 18.9 °C 1002.6 hPa ESE 22.2 km/h 22.2 km/h 51 % 0.0 mm 105.0 W/m2 CLR
18:21 29.9 °C 18.9 °C 1002.6 hPa ENE 16.7 km/h 16.7 km/h 52 % 0.0 mm 109.0 W/m2 CLR
18:26 29.8 °C 19.2 °C 1002.9 hPa ENE 16.7 km/h 16.7 km/h 53 % 0.0 mm 118.0 W/m2 CLR
18:31 29.7 °C 18.8 °C 1002.6 hPa ESE 18.5 km/h 18.5 km/h 52 % 0.0 mm 125.0 W/m2 CLR
18:36 29.4 °C 19.4 °C 1002.6 hPa ESE 16.7 km/h 16.7 km/h 55 % 0.0 mm 132.0 W/m2 CLR
18:41 29.3 °C 19.6 °C 1002.6 hPa ESE 18.5 km/h 18.5 km/h 56 % 0.0 mm 153.0 W/m2 CLR
18:46 29.4 °C 19.4 °C 1002.6 hPa ESE 18.5 km/h 18.5 km/h 55 % 0.0 mm 190.0 W/m2 CLR
18:51 29.4 °C 19.4 °C 1002.6 hPa Calm     55 % 0.0 mm 155.0 W/m2 CLR
18:56 29.4 °C 19.7 °C 1002.6 hPa ESE 4.8 km/h 4.8 km/h 56 % 0.0 mm 199.0 W/m2 CLR
19:01 29.7 °C 19.4 °C 1002.9 hPa Calm     54 % 0.0 mm 497.0 W/m2 CLR
19:06 30.0 °C 19.4 °C 1002.6 hPa East 7.4 km/h 7.4 km/h 53 % 0.0 mm 489.0 W/m2 CLR
19:11 30.1 °C 19.5 °C 1002.6 hPa East 9.3 km/h 9.3 km/h 53 % 0.0 mm 448.0 W/m2 CLR
19:16 30.3 °C 19.3 °C 1002.6 hPa ENE 9.3 km/h 9.3 km/h 52 % 0.0 mm 438.0 W/m2 CLR
19:21 30.4 °C 19.4 °C 1002.6 hPa WNW 13.0 km/h 13.0 km/h 52 % 0.0 mm 427.0 W/m2 CLR
19:26 31.3 °C 9.6 °C 1002.6 hPa NE 24.1 km/h 24.1 km/h 26 % 0.0 mm 396.0 W/m2 CLR
19:31 32.3 °C 9.7 °C 1002.9 hPa NNW 20.4 km/h 20.4 km/h 25 % 0.0 mm 353.0 W/m2 CLR
19:36 32.7 °C 7.5 °C 1002.9 hPa NNW 24.1 km/h 24.1 km/h 21 % 0.0 mm 311.0 W/m2 CLR
19:41 32.8 °C 6.9 °C 1002.6 hPa NNW 46.3 km/h 46.3 km/h 20 % 0.0 mm 281.0 W/m2 CLR
19:46 32.6 °C 6.7 °C 1002.9 hPa NNW 37.0 km/h 37.0 km/h 20 % 0.0 mm 253.0 W/m2 CLR
19:51 32.4 °C 6.6 °C 1002.6 hPa NNW 33.3 km/h 33.3 km/h 20 % 0.0 mm 236.0 W/m2 CLR
19:56 32.4 °C 6.6 °C 1002.9 hPa NW 24.1 km/h 24.1 km/h 20 % 0.0 mm 214.0 W/m2 CLR
20:01 32.3 °C 5.8 °C 1002.9 hPa NW 35.2 km/h 35.2 km/h 19 % 0.0 mm 199.0 W/m2 CLR
20:06 32.2 °C 5.7 °C 1002.9 hPa NW 44.4 km/h 44.4 km/h 19 % 0.0 mm 179.0 W/m2 CLR
20:11 32.1 °C 5.6 °C 1002.9 hPa NW 38.9 km/h 38.9 km/h 19 % 0.0 mm 162.0 W/m2 CLR
20:16 32.0 °C 6.2 °C 1002.9 hPa NW 33.3 km/h 33.3 km/h 20 % 0.0 mm 146.0 W/m2 CLR
20:21 31.9 °C 6.1 °C 1002.9 hPa NNW 35.2 km/h 35.2 km/h 20 % 0.0 mm 132.0 W/m2 CLR
20:26 31.8 °C 6.8 °C 1002.9 hPa NNW 29.6 km/h 29.6 km/h 21 % 0.0 mm 116.0 W/m2 CLR
20:31 31.7 °C 6.7 °C 1002.9 hPa NW 22.2 km/h 22.2 km/h 21 % 0.0 mm 98.0 W/m2 CLR
20:36 31.6 °C 7.3 °C 1002.9 hPa NNW 31.5 km/h 31.5 km/h 22 % 0.0 mm 84.0 W/m2 CLR
20:41 31.2 °C 9.9 °C 1003.3 hPa North 31.5 km/h 31.5 km/h 27 % 0.0 mm 70.0 W/m2 FEW
20:46 30.6 °C 10.6 °C 1003.3 hPa NW 31.5 km/h 31.5 km/h 29 % 0.0 mm 47.0 W/m2 SCT
20:47 30.5 °C 10.4 °C 1003.3 hPa North 25.9 km/h 25.9 km/h 29 % 0.0 mm 30.0 W/m2 BKN
20:52 30.3 °C 10.3 °C 1003.3 hPa North 29.6 km/h 29.6 km/h 29 % 0.0 mm 42.0 W/m2 BKN
20:57 30.1 °C 10.1 °C 1003.6 hPa North 20.4 km/h 20.4 km/h 29 % 0.0 mm 33.0 W/m2 BKN
21:02 29.8 °C 10.4 °C 1003.6 hPa North 33.8 km/h 33.8 km/h 30 % 0.0 mm 25.0 W/m2 BKN
21:08 29.3 °C 10.9 °C 1003.9 hPa NNW 42.6 km/h 42.6 km/h 32 % 0.0 mm 19.0 W/m2 BKN
21:13 28.9 °C 11.0 °C 1003.9 hPa NW 33.8 km/h 33.8 km/h 33 % 0.0 mm 14.0 W/m2 BKN
21:18 28.4 °C 11.1 °C 1003.9 hPa NNW 24.1 km/h 24.1 km/h 34 % 0.0 mm 12.0 W/m2 BKN
21:23 28.2 °C 11.3 °C 1004.3 hPa North 24.1 km/h 24.1 km/h 35 % 0.0 mm 9.0 W/m2 BKN
21:28 27.9 °C 11.4 °C 1004.3 hPa NNW 25.9 km/h 25.9 km/h 36 % 0.0 mm 5.0 W/m2 OVC
21:33 27.5 °C 11.1 °C 1004.3 hPa NNW 27.8 km/h 27.8 km/h 36 % 0.0 mm 0.0 W/m2 OVC
21:38 27.2 °C 11.3 °C 1004.3 hPa NW 25.9 km/h 25.9 km/h 37 % 0.0 mm 0.0 W/m2 OVC
21:43 26.9 °C 11.8 °C 1004.3 hPa NNW 27.8 km/h 27.8 km/h 39 % 0.0 mm 0.0 W/m2 OVC
21:48 26.6 °C 11.9 °C 1004.3 hPa NW 35.2 km/h 35.2 km/h 40 % 0.0 mm 0.0 W/m2 CLR
21:53 26.4 °C 12.1 °C 1004.6 hPa NW 27.4 km/h 27.4 km/h 41 % 0.0 mm 0.0 W/m2 CLR
21:58 26.2 °C 12.2 °C 1004.6 hPa NW 31.5 km/h 31.5 km/h 42 % 0.0 mm 0.0 W/m2 CLR
22:03 26.0 °C 12.4 °C 1005.0 hPa NW 35.2 km/h 35.2 km/h 43 % 0.0 mm 0.0 W/m2 CLR
22:08 25.9 °C 12.3 °C 1005.0 hPa NNW 30.6 km/h 30.6 km/h 43 % 0.0 mm 0.0 W/m2 CLR
22:13 25.7 °C 12.6 °C 1005.0 hPa NNW 29.0 km/h 29.0 km/h 44 % 0.0 mm 0.0 W/m2 CLR
22:18 25.6 °C 12.7 °C 1005.3 hPa NW 29.6 km/h 29.6 km/h 45 % 0.0 mm 0.0 W/m2 CLR
22:23 25.4 °C 12.6 °C 1005.3 hPa WNW 24.1 km/h 24.1 km/h 45 % 0.0 mm 0.0 W/m2 CLR
22:28 25.2 °C 12.8 °C 1005.3 hPa NNW 24.1 km/h 24.1 km/h 46 % 0.0 mm 0.0 W/m2 CLR
22:30 25.2 °C 12.7 °C 1005.3 hPa NW 27.8 km/h 27.8 km/h 46 % 0.0 mm 0.0 W/m2 CLR
22:35 25.1 °C 12.6 °C 1005.6 hPa NW 22.2 km/h 22.2 km/h 46 % 0.0 mm 0.0 W/m2 CLR
22:40 24.9 °C 12.8 °C 1005.6 hPa NW 19.3 km/h 19.3 km/h 47 % 0.0 mm 0.0 W/m2 CLR
22:45 24.8 °C 12.8 °C 1005.6 hPa WNW 20.9 km/h 20.9 km/h 47 % 0.0 mm 0.0 W/m2 CLR
22:50 24.8 °C 12.7 °C 1005.6 hPa NW 22.2 km/h 22.2 km/h 47 % 0.0 mm 0.0 W/m2 CLR
22:55 24.7 °C 12.7 °C 1005.6 hPa NNW 20.4 km/h 20.4 km/h 47 % 0.0 mm 0.0 W/m2 CLR
23:00 24.6 °C 12.6 °C 1006.0 hPa NW 24.1 km/h 24.1 km/h 47 % 0.0 mm 0.0 W/m2 CLR
23:05 24.6 °C 12.5 °C 1005.6 hPa NW 16.7 km/h 16.7 km/h 47 % 0.0 mm 0.0 W/m2 CLR
23:10 24.5 °C 12.8 °C 1005.6 hPa WNW 25.7 km/h 25.7 km/h 48 % 0.0 mm 0.0 W/m2 CLR
23:11 24.5 °C 12.4 °C 1005.6 hPa WNW 25.9 km/h 25.9 km/h 47 % 0.0 mm 0.0 W/m2 CLR
23:16 24.5 °C 12.8 °C 1006.0 hPa WNW 22.2 km/h 22.2 km/h 48 % 0.0 mm 0.0 W/m2 CLR
23:21 24.4 °C 12.4 °C 1006.0 hPa WNW 24.1 km/h 24.1 km/h 47 % 0.0 mm 0.0 W/m2 CLR
23:26 24.4 °C 12.7 °C 1006.0 hPa WNW 18.5 km/h 18.5 km/h 48 % 0.0 mm 0.0 W/m2 CLR
23:31 24.3 °C 12.6 °C 1006.3 hPa West 18.5 km/h 18.5 km/h 48 % 0.0 mm 0.0 W/m2 CLR
23:36 24.3 °C 12.6 °C 1006.3 hPa WNW 17.7 km/h 17.7 km/h 48 % 0.0 mm 0.0 W/m2 CLR
23:41 24.3 °C 12.6 °C 1006.3 hPa West 16.7 km/h 16.7 km/h 48 % 0.0 mm 0.0 W/m2 CLR
23:46 24.2 °C 12.5 °C 1006.3 hPa West 16.7 km/h 16.7 km/h 48 % 0.0 mm 0.0 W/m2 CLR
23:51 24.2 °C 12.8 °C 1006.3 hPa SW 11.1 km/h 11.1 km/h 49 % 0.0 mm 0.0 W/m2 CLR
23:56 24.1 °C 12.7 °C 1006.7 hPa West 9.7 km/h 9.7 km/h 49 % 0.0 mm 0.0 W/m2 CLR
Lo Temps de Massalio
Compliments of Weather Underground - 1.25 mb